| time (UTC) | temp C | wind direction | speed KPH | gust KPH | rain 1hr cm | rain 24hr cm | rain mn cm | humidity % | barometer mb |
| 20260504050537 | 2 | 4 | 0.0 | 0.0 | 0.00 | 0.00 | 0.00 | 94 | 1013.1 |
| 20260504045531 | 2 | 6 | 0.0 | 0.0 | 0.00 | 0.00 | 0.00 | 95 | 1013.0 |
| 20260504045026 | 2 | 9 | 0.0 | 0.0 | 0.00 | 0.00 | 0.00 | 95 | 1013.1 |
| 20260504044524 | 2 | 4 | 0.0 | 0.0 | 0.00 | 0.00 | 0.00 | 95 | 1013.3 |
| 20260504044021 | 2 | 5 | 0.0 | 0.0 | 0.00 | 0.00 | 0.00 | 95 | 1013.3 |
| 20260504043518 | 2 | 5 | 0.0 | 0.0 | 0.00 | 0.00 | 0.00 | 95 | 1013.1 |
| 20260504043015 | 2 | 12 | 0.0 | 0.0 | 0.00 | 0.00 | 0.00 | 94 | 1013.2 |
| 20260504042512 | 2 | 9 | 0.0 | 0.0 | 0.00 | 0.00 | 0.00 | 94 | 1013.1 |
| 20260504042009 | 2 | 8 | 0.0 | 0.0 | 0.00 | 0.00 | 0.00 | 94 | 1012.6 |
| 20260504041505 | 2 | 7 | 0.0 | 0.0 | 0.00 | 0.00 | 0.00 | 93 | 1012.7 |
| 20260504041001 | 2 | 6 | 0.0 | 0.0 | 0.00 | 0.00 | 0.00 | 93 | 1012.7 |
| 20260504040459 | 2 | 6 | 0.0 | 0.0 | 0.00 | 0.00 | 0.00 | 93 | 1013.0 |
| 20260504035954 | 2 | 6 | 0.0 | 0.0 | 0.00 | 0.00 | 0.00 | 93 | 1012.8 |
| 20260504035452 | 3 | 4 | 0.0 | 0.0 | 0.00 | 0.00 | 0.00 | 93 | 1013.0 |
| 20260504034948 | 3 | 9 | 0.0 | 0.0 | 0.00 | 0.00 | 0.00 | 92 | 1013.0 |
| 20260504034446 | 3 | 4 | 0.0 | 0.0 | 0.00 | 0.00 | 0.00 | 92 | 1012.8 |
| 20260504033943 | 3 | 4 | 0.0 | 0.0 | 0.00 | 0.00 | 0.00 | 92 | 1013.0 |
| 20260504033441 | 3 | 8 | 0.0 | 0.0 | 0.00 | 0.00 | 0.00 | 91 | 1012.7 |
| 20260504032938 | 3 | 9 | 0.0 | 0.0 | 0.00 | 0.00 | 0.00 | 91 | 1013.0 |
| 20260504032435 | 3 | 3 | 0.0 | 0.0 | 0.00 | 0.00 | 0.00 | 91 | 1012.8 |
| 20260504031931 | 3 | 7 | 0.0 | 0.0 | 0.00 | 0.00 | 0.00 | 90 | 1012.8 |
| 20260504031428 | 3 | 8 | 0.0 | 0.0 | 0.00 | 0.00 | 0.00 | 90 | 1012.8 |
| 20260504030925 | 3 | 7 | 0.0 | 0.0 | 0.00 | 0.00 | 0.00 | 90 | 1013.0 |
| 20260504030422 | 3 | 7 | 0.0 | 0.0 | 0.00 | 0.00 | 0.00 | 91 | 1012.7 |
| 20260504025918 | 3 | 6 | 0.0 | 0.0 | 0.00 | 0.00 | 0.00 | 91 | 1012.6 |
| 20260504025415 | 3 | 6 | 0.0 | 0.0 | 0.00 | 0.00 | 0.00 | 91 | 1013.0 |
| 20260504024912 | 4 | 4 | 0.0 | 0.0 | 0.00 | 0.00 | 0.00 | 90 | 1013.1 |
| 20260504024409 | 4 | 7 | 0.0 | 0.0 | 0.00 | 0.00 | 0.00 | 89 | 1012.8 |
| 20260504023906 | 4 | 5 | 0.0 | 0.0 | 0.00 | 0.00 | 0.00 | 88 | 1012.8 |
| 20260504023403 | 4 | 4 | 0.0 | 0.0 | 0.00 | 0.00 | 0.00 | 88 | 1013.2 |
| 20260504022858 | 4 | 4 | 0.0 | 0.0 | 0.00 | 0.00 | 0.00 | 89 | 1012.8 |
| 20260504022355 | 4 | 8 | 0.0 | 0.0 | 0.00 | 0.00 | 0.00 | 88 | 1012.7 |
| 20260504021851 | 4 | 8 | 0.0 | 0.0 | 0.00 | 0.00 | 0.00 | 88 | 1013.0 |
| 20260504021349 | 5 | 5 | 0.0 | 0.0 | 0.00 | 0.00 | 0.00 | 89 | 1012.8 |
| 20260504020845 | 5 | 4 | 0.0 | 0.0 | 0.00 | 0.00 | 0.00 | 89 | 1012.8 |
| 20260504020342 | 5 | 4 | 0.0 | 0.0 | 0.00 | 0.00 | 0.00 | 87 | 1012.7 |
| 20260504015838 | 5 | 3 | 0.0 | 0.0 | 0.00 | 0.00 | 0.00 | 85 | 1012.6 |
| 20260504015335 | 5 | 2 | 0.0 | 0.0 | 0.00 | 0.00 | 0.00 | 84 | 1012.8 |
| 20260504014831 | 5 | 2 | 0.0 | 0.0 | 0.00 | 0.00 | 0.00 | 83 | 1012.8 |
| 20260504014327 | 5 | 1 | 0.0 | 0.0 | 0.00 | 0.00 | 0.00 | 83 | 1012.7 |
| 20260504013825 | 6 | 2 | 0.0 | 0.0 | 0.00 | 0.00 | 0.00 | 83 | 1012.7 |
| 20260504013322 | 6 | 2 | 0.0 | 0.0 | 0.00 | 0.00 | 0.00 | 80 | 1012.8 |
| 20260504012819 | 6 | 2 | 0.0 | 0.0 | 0.00 | 0.00 | 0.00 | 78 | 1012.5 |
| 20260504012316 | 6 | 2 | 0.0 | 0.0 | 0.00 | 0.00 | 0.00 | 76 | 1012.8 |
| 20260504011814 | 6 | 2 | 0.0 | 0.0 | 0.00 | 0.00 | 0.00 | 77 | 1012.6 |
| 20260504011310 | 7 | 2 | 0.0 | 0.0 | 0.00 | 0.00 | 0.00 | 77 | 1012.6 |
| 20260504010806 | 7 | 2 | 0.0 | 0.0 | 0.00 | 0.00 | 0.00 | 73 | 1012.6 |
| 20260504010302 | 7 | 1 | 0.0 | 0.0 | 0.00 | 0.00 | 0.00 | 73 | 1012.4 |
| 20260504005759 | 7 | 1 | 0.0 | 0.0 | 0.00 | 0.00 | 0.00 | 68 | 1012.5 |
| 20260504005256 | 8 | 1 | 0.0 | 0.0 | 0.00 | 0.00 | 0.00 | 70 | 1012.4 |
| 20260504004753 | 8 | 1 | 0.0 | 0.0 | 0.00 | 0.00 | 0.00 | 66 | 1012.5 |
| 20260504004251 | 8 | 1 | 0.0 | 0.0 | 0.00 | 0.00 | 0.00 | 64 | 1012.2 |
| 20260504003747 | 9 | 1 | 0.0 | 0.0 | 0.00 | 0.00 | 0.00 | 62 | 1012.4 |
| 20260504003244 | 10 | 357 | 0.0 | 0.0 | 0.00 | 0.00 | 0.00 | 56 | 1012.3 |
| 20260504002740 | 10 | 358 | 1.6 | 1.6 | 0.00 | 0.00 | 0.00 | 52 | 1012.0 |
| 20260504002237 | 10 | 359 | 0.0 | 0.0 | 0.00 | 0.00 | 0.00 | 51 | 1011.7 |
| 20260504001735 | 11 | 1 | 0.0 | 0.0 | 0.00 | 0.00 | 0.00 | 51 | 1012.1 |
| 20260504001232 | 11 | 1 | 0.0 | 0.0 | 0.00 | 0.00 | 0.00 | 51 | 1012.0 |
| 20260504000729 | 11 | 3 | 0.0 | 0.0 | 0.00 | 0.00 | 0.00 | 51 | 1011.9 |
| 20260504000226 | 11 | 358 | 0.0 | 0.0 | 0.00 | 0.00 | 0.00 | 53 | 1011.8 |
| 20260503235724 | 12 | 0 | 0.0 | 0.0 | 0.00 | 0.00 | 0.00 | 48 | 1011.9 |
| 20260503235221 | 12 | 351 | 0.0 | 0.0 | 0.00 | 0.00 | 0.00 | 46 | 1011.9 |
| 20260503234719 | 12 | 3 | 0.0 | 0.0 | 0.00 | 0.00 | 0.00 | 45 | 1011.9 |
| 20260503234217 | 13 | 340 | 1.6 | 1.6 | 0.00 | 0.00 | 0.00 | 45 | 1011.5 |
| 20260503233713 | 13 | 40 | 0.0 | 0.0 | 0.00 | 0.00 | 0.00 | 44 | 1011.8 |
| 20260503233209 | 13 | 307 | 3.2 | 3.2 | 0.00 | 0.00 | 0.00 | 46 | 1011.8 |
| 20260503232706 | 13 | 212 | 3.2 | 4.8 | 0.00 | 0.00 | 0.00 | 42 | 1011.8 |
| 20260503232203 | 13 | 347 | 0.0 | 0.0 | 0.00 | 0.00 | 0.00 | 44 | 1011.7 |
| 20260503231702 | 13 | 80 | 3.2 | 4.8 | 0.00 | 0.00 | 0.00 | 44 | 1011.8 |
| 20260503231157 | 13 | 348 | 3.2 | 3.2 | 0.00 | 0.00 | 0.00 | 44 | 1011.8 |
| 20260503230654 | 13 | 10 | 0.0 | 0.0 | 0.00 | 0.00 | 0.00 | 44 | 1011.6 |
| 20260503230151 | 13 | 6 | 0.0 | 0.0 | 0.00 | 0.00 | 0.00 | 41 | 1011.9 |
| 20260503225648 | 13 | 28 | 3.2 | 3.2 | 0.00 | 0.00 | 0.00 | 42 | 1011.8 |
| 20260503225143 | 13 | 0 | 1.6 | 4.8 | 0.00 | 0.00 | 0.00 | 44 | 1011.7 |
| 20260503224640 | 14 | 245 | 4.8 | 8.0 | 0.00 | 0.00 | 0.00 | 40 | 1011.7 |
| 20260503224138 | 14 | 338 | 1.6 | 1.6 | 0.00 | 0.00 | 0.00 | 40 | 1011.6 |
| 20260503223636 | 14 | 21 | 0.0 | 0.0 | 0.00 | 0.00 | 0.00 | 42 | 1011.7 |
| 20260503223132 | 14 | 356 | 4.8 | 8.0 | 0.00 | 0.00 | 0.00 | 41 | 1011.6 |
| 20260503222629 | 14 | 280 | 0.0 | 1.6 | 0.00 | 0.00 | 0.00 | 39 | 1011.6 |
| 20260503222127 | 15 | 343 | 4.8 | 8.0 | 0.00 | 0.00 | 0.00 | 38 | 1011.5 |
| 20260503221625 | 15 | 316 | 0.0 | 1.6 | 0.00 | 0.00 | 0.00 | 40 | 1011.7 |
| 20260503221122 | 15 | 203 | 4.8 | 4.8 | 0.00 | 0.00 | 0.00 | 40 | 1011.9 |
| 20260503220619 | 15 | 287 | 1.6 | 3.2 | 0.00 | 0.00 | 0.00 | 39 | 1011.8 |
| 20260503220116 | 15 | 348 | 0.0 | 0.0 | 0.00 | 0.00 | 0.00 | 38 | 1011.7 |
| 20260503215613 | 15 | 259 | 1.6 | 3.2 | 0.00 | 0.00 | 0.00 | 42 | 1011.6 |
| 20260503215109 | 15 | 330 | 4.8 | 8.0 | 0.00 | 0.00 | 0.00 | 36 | 1011.6 |
| 20260503214608 | 16 | 320 | 6.4 | 9.7 | 0.00 | 0.00 | 0.00 | 35 | 1011.7 |
| 20260503214104 | 15 | 312 | 1.6 | 3.2 | 0.00 | 0.00 | 0.00 | 38 | 1011.5 |
| 20260503213603 | 15 | 317 | 4.8 | 4.8 | 0.00 | 0.00 | 0.00 | 37 | 1011.6 |
| 20260503213059 | 15 | 182 | 1.6 | 3.2 | 0.00 | 0.00 | 0.00 | 36 | 1011.6 |
| 20260503212556 | 15 | 234 | 0.0 | 1.6 | 0.00 | 0.00 | 0.00 | 37 | 1011.5 |
| 20260503212054 | 15 | 211 | 8.0 | 9.7 | 0.00 | 0.00 | 0.00 | 37 | 1011.4 |
| 20260503211551 | 15 | 0 | 4.8 | 9.7 | 0.00 | 0.00 | 0.00 | 38 | 1011.8 |
| 20260503211046 | 15 | 0 | 0.0 | 0.0 | 0.00 | 0.00 | 0.00 | 36 | 1011.3 |
| 20260503210543 | 15 | 195 | 6.4 | 11.3 | 0.00 | 0.00 | 0.00 | 37 | 1011.5 |
| 20260503210039 | 15 | 61 | 3.2 | 4.8 | 0.00 | 0.00 | 0.00 | 38 | 1011.5 |
| 20260503205536 | 15 | 174 | 3.2 | 8.0 | 0.00 | 0.00 | 0.00 | 37 | 1011.7 |
| 20260503205032 | 15 | 24 | 3.2 | 4.8 | 0.00 | 0.00 | 0.00 | 37 | 1011.6 |
| 20260503204529 | 15 | 252 | 1.6 | 1.6 | 0.00 | 0.00 | 0.00 | 37 | 1011.5 |
| 20260503204026 | 15 | 13 | 1.6 | 3.2 | 0.00 | 0.00 | 0.00 | 39 | 1011.7 |
| 20260503203523 | 15 | 307 | 4.8 | 8.0 | 0.00 | 0.00 | 0.00 | 36 | 1011.5 |
| 20260503203020 | 15 | 359 | 1.6 | 1.6 | 0.00 | 0.00 | 0.00 | 36 | 1011.7 |
| 20260503202518 | 15 | 55 | 4.8 | 8.0 | 0.00 | 0.00 | 0.00 | 38 | 1011.4 |
| 20260503202016 | 15 | 170 | 0.0 | 3.2 | 0.00 | 0.00 | 0.00 | 38 | 1011.7 |
| 20260503201514 | 15 | 7 | 14.5 | 16.1 | 0.00 | 0.00 | 0.00 | 35 | 1011.9 |
| 20260503201011 | 15 | 330 | 1.6 | 3.2 | 0.00 | 0.00 | 0.00 | 37 | 1011.7 |
| 20260503200507 | 15 | 290 | 4.8 | 4.8 | 0.00 | 0.00 | 0.00 | 37 | 1011.8 |
| 20260503200004 | 15 | 344 | 1.6 | 1.6 | 0.00 | 0.00 | 0.00 | 39 | 1011.7 |
| 20260503195501 | 15 | 22 | 0.0 | 0.0 | 0.00 | 0.00 | 0.00 | 38 | 1012.0 |
| 20260503194957 | 15 | 75 | 1.6 | 3.2 | 0.00 | 0.00 | 0.00 | 37 | 1012.0 |
| 20260503194455 | 15 | 182 | 6.4 | 8.0 | 0.00 | 0.00 | 0.00 | 38 | 1011.9 |
| 20260503193955 | 14 | 212 | 3.2 | 4.8 | 0.00 | 0.00 | 0.00 | 38 | 1011.8 |
| 20260503193451 | 15 | 289 | 3.2 | 3.2 | 0.00 | 0.00 | 0.00 | 36 | 1012.1 |
| 20260503192946 | 15 | 216 | 9.7 | 11.3 | 0.00 | 0.00 | 0.00 | 38 | 1012.1 |
| 20260503192443 | 15 | 10 | 0.0 | 0.0 | 0.00 | 0.00 | 0.00 | 39 | 1012.2 |
| 20260503191938 | 15 | 317 | 3.2 | 3.2 | 0.00 | 0.00 | 0.00 | 37 | 1012.4 |
| 20260503191436 | 16 | 270 | 8.0 | 11.3 | 0.00 | 0.00 | 0.00 | 37 | 1012.3 |
| 20260503190932 | 15 | 342 | 4.8 | 4.8 | 0.00 | 0.00 | 0.00 | 37 | 1012.5 |
| 20260503190430 | 15 | 292 | 4.8 | 11.3 | 0.00 | 0.00 | 0.00 | 37 | 1012.3 |
| 20260503185927 | 15 | 3 | 1.6 | 1.6 | 0.00 | 0.00 | 0.00 | 36 | 1012.5 |
| 20260503185423 | 15 | 312 | 9.7 | 12.9 | 0.00 | 0.00 | 0.00 | 35 | 1012.7 |
| 20260503184922 | 15 | 330 | 8.0 | 11.3 | 0.00 | 0.00 | 0.00 | 37 | 1012.6 |
| 20260503184420 | 14 | 328 | 3.2 | 4.8 | 0.00 | 0.00 | 0.00 | 39 | 1012.7 |
| 20260503183917 | 15 | 5 | 4.8 | 4.8 | 0.00 | 0.00 | 0.00 | 37 | 1012.8 |
| 20260503183413 | 15 | 163 | 4.8 | 4.8 | 0.00 | 0.00 | 0.00 | 39 | 1012.7 |
| 20260503182910 | 14 | 292 | 1.6 | 3.2 | 0.00 | 0.00 | 0.00 | 39 | 1012.6 |
| 20260503182409 | 14 | 345 | 1.6 | 4.8 | 0.00 | 0.00 | 0.00 | 40 | 1012.6 |
| 20260503181905 | 13 | 33 | 1.6 | 3.2 | 0.00 | 0.00 | 0.00 | 39 | 1012.8 |
| 20260503181402 | 13 | 37 | 0.0 | 0.0 | 0.00 | 0.00 | 0.00 | 40 | 1012.6 |
| 20260503180858 | 13 | 10 | 3.2 | 3.2 | 0.00 | 0.00 | 0.00 | 38 | 1012.7 |
| 20260503180357 | 14 | 285 | 12.9 | 16.1 | 0.00 | 0.00 | 0.00 | 36 | 1012.8 |
| 20260503175853 | 15 | 338 | 4.8 | 8.0 | 0.00 | 0.00 | 0.00 | 38 | 1012.7 |
| 20260503175351 | 15 | 353 | 9.7 | 12.9 | 0.00 | 0.00 | 0.00 | 36 | 1012.8 |
| 20260503174846 | 14 | 11 | 4.8 | 9.7 | 0.00 | 0.00 | 0.00 | 38 | 1013.0 |
| 20260503174345 | 13 | 323 | 3.2 | 3.2 | 0.00 | 0.00 | 0.00 | 39 | 1012.7 |
| 20260503173845 | 13 | 355 | 3.2 | 4.8 | 0.00 | 0.00 | 0.00 | 39 | 1013.3 |
| 20260503173342 | 13 | 7 | 1.6 | 3.2 | 0.00 | 0.00 | 0.00 | 40 | 1013.4 |
| 20260503172838 | 13 | 2 | 8.0 | 8.0 | 0.00 | 0.00 | 0.00 | 38 | 1013.2 |
| 20260503172336 | 14 | 357 | 3.2 | 4.8 | 0.00 | 0.00 | 0.00 | 37 | 1013.0 |
| 20260503171832 | 13 | 40 | 3.2 | 3.2 | 0.00 | 0.00 | 0.00 | 37 | 1013.3 |
| 20260503171329 | 13 | 338 | 1.6 | 3.2 | 0.00 | 0.00 | 0.00 | 40 | 1013.2 |
| 20260503170827 | 13 | 326 | 9.7 | 11.3 | 0.00 | 0.00 | 0.00 | 38 | 1013.5 |
| 20260503170323 | 13 | 183 | 8.0 | 11.3 | 0.00 | 0.00 | 0.00 | 40 | 1013.4 |
| 20260503110332 | 1 | 4 | 0.0 | 0.0 | 0.00 | 0.00 | 0.00 | 85 | 1014.6 |
| 20260503100258 | 2 | 5 | 0.0 | 0.0 | 0.00 | 0.00 | 0.00 | 83 | 1014.2 |
| 20260503090224 | 2 | 3 | 1.6 | 3.2 | 0.00 | 0.00 | 0.00 | 75 | 1013.7 |
| 20260503081150 | 2 | 342 | 0.0 | 0.0 | 0.00 | 0.00 | 0.00 | 81 | 1013.6 |
| 20260503080646 | 2 | 353 | 0.0 | 0.0 | 0.00 | 0.00 | 0.00 | 81 | 1013.5 |
| 20260503080144 | 2 | 5 | 0.0 | 0.0 | 0.00 | 0.00 | 0.00 | 81 | 1013.6 |
| 20260503072620 | 3 | 7 | 0.0 | 0.0 | 0.00 | 0.00 | 0.00 | 73 | 1013.0 |
| 20260503072117 | 4 | 345 | 0.0 | 0.0 | 0.00 | 0.00 | 0.00 | 71 | 1013.2 |
| 20260503071614 | 5 | 4 | 0.0 | 0.0 | 0.00 | 0.00 | 0.00 | 69 | 1013.1 |
| 20260503071111 | 5 | 7 | 0.0 | 0.0 | 0.00 | 0.00 | 0.00 | 69 | 1013.0 |
| 20260503070608 | 5 | 305 | 0.0 | 1.6 | 0.00 | 0.00 | 0.00 | 67 | 1013.0 |
| 20260503070106 | 5 | 211 | 1.6 | 3.2 | 0.00 | 0.00 | 0.00 | 67 | 1013.2 |
| 20260503055026 | 5 | 357 | 0.0 | 0.0 | 0.00 | 0.00 | 0.00 | 64 | 1013.1 |
| 20260503054522 | 5 | 21 | 0.0 | 1.6 | 0.00 | 0.00 | 0.00 | 62 | 1013.2 |
| 20260503054020 | 6 | 23 | 0.0 | 1.6 | 0.00 | 0.00 | 0.00 | 68 | 1013.1 |
| 20260503053518 | 5 | 327 | 1.6 | 3.2 | 0.00 | 0.00 | 0.00 | 61 | 1013.1 |
| 20260503053015 | 5 | 353 | 0.0 | 1.6 | 0.00 | 0.00 | 0.00 | 64 | 1013.4 |
| 20260503052512 | 5 | 35 | 1.6 | 1.6 | 0.00 | 0.00 | 0.00 | 68 | 1013.4 |
| 20260503052008 | 5 | 3 | 0.0 | 0.0 | 0.00 | 0.00 | 0.00 | 72 | 1013.2 |
| 20260503051503 | 5 | 7 | 0.0 | 0.0 | 0.00 | 0.00 | 0.00 | 75 | 1013.3 |
| 20260503051001 | 5 | 11 | 0.0 | 1.6 | 0.00 | 0.00 | 0.00 | 78 | 1013.3 |